Weather History for Lancaster, OH

Change the Weather History Date:

Thursday, August 14, 2014

  Actual Average Record
Temperature  
Mean Temperature 65 °F -  
Max Temperature 77 °F 82 °F 97 °F (1959)
Min Temperature 52 °F 58 °F 42 °F (1941)
Growing Degree Days 15 (Base 50)    
Moisture  
Dew Point 54 °F    
Average Humidity 68    
Maximum Humidity 93    
Minimum Humidity 43    
Precipitation  
Precipitation 0.00 in - - ()
Sea Level Pressure  
Sea Level Pressure 30.00 in    
Wind  
Wind Speed 4 mph (NW)    
Max Wind Speed 13 mph    
Max Gust Speed -    
Visibility 10 miles    
Events      
Averages and records for this station are not official NWS values.
T = Trace of Precipitation, MM = Missing Value Source: NWS Daily Summary

Daily Weather History Graph

Daily Weather History Graph

Search for Another Location

Airport:

Trip Planner

Search our weather history database for the weather conditions in past years. The results will help you decide how hot, cold, wet, or windy it might be!

Date:

Astronomy

Aug. 14, 2014 Rise Set
Actual Time 6:41 AM EDT 8:28 PM EDT
Civil Twilight 6:12 AM EDT 8:57 PM EDT
Nautical Twilight 5:37 AM EDT 9:32 PM EDT
Astronomical Twilight 4:59 AM EDT 10:09 PM EDT
Moon 10:51 PM EDT (8/14) 11:16 AM EDT (8/14)
Length of Visible Light 14h 44m
Length of Day
13h 46m
Waning Gibbous, 79% of the Moon is Illuminated
Aug 14
Waning Gibbous
Aug 17
Last Quarter
Aug 25
New
Sep 2
First Quarter
Sep 8
Full

Hourly Weather History & Observations

Time (EDT) Temp. Dew Point Humidity Pressure Visibility Wind Dir Wind Speed Gust Speed Precip Events Conditions
12:53 AM 57.9 °F 55.0 °F 90% 30.00 in 10.0 mi Calm Calm - N/A   Clear
1:53 AM 61.0 °F 55.9 °F 83% 29.99 in 10.0 mi South 3.5 mph - N/A   Clear
2:53 AM 60.1 °F 55.9 °F 86% 29.97 in 10.0 mi Calm Calm - N/A   Mostly Cloudy
3:53 AM 63.0 °F 57.0 °F 81% 29.97 in 10.0 mi WNW 6.9 mph - N/A   Partly Cloudy
4:53 AM 61.0 °F 57.0 °F 87% 29.96 in 10.0 mi West 4.6 mph - N/A   Partly Cloudy
5:53 AM 60.1 °F 55.9 °F 86% 29.97 in 10.0 mi WNW 4.6 mph - N/A   Clear
6:53 AM 60.1 °F 55.0 °F 83% 30.00 in 10.0 mi NW 4.6 mph - N/A   Clear
7:53 AM 61.0 °F 55.9 °F 83% 30.01 in 10.0 mi NW 3.5 mph - N/A   Clear
8:53 AM 64.0 °F 55.0 °F 73% 30.03 in 10.0 mi North 8.1 mph - N/A   Clear
9:53 AM 66.9 °F 55.9 °F 68% 30.04 in 10.0 mi Variable 3.5 mph - N/A   Clear
10:53 AM 71.1 °F 53.1 °F 53% 30.04 in 10.0 mi NNW 6.9 mph - N/A   Partly Cloudy
11:53 AM 73.0 °F 54.0 °F 51% 30.04 in 10.0 mi WNW 6.9 mph - N/A   Clear
12:53 PM 73.9 °F 50.0 °F 43% 30.02 in 10.0 mi NW 5.8 mph - N/A   Clear
1:53 PM 73.9 °F 51.1 °F 45% 30.00 in 10.0 mi NNW 10.4 mph - N/A   Mostly Cloudy
2:53 PM 75.9 °F 54.0 °F 46% 30.00 in 10.0 mi NNW 10.4 mph - N/A   Mostly Cloudy
3:53 PM 75.0 °F 52.0 °F 44% 29.99 in 10.0 mi NW 10.4 mph - N/A   Scattered Clouds
4:53 PM 73.9 °F 52.0 °F 46% 29.99 in 10.0 mi NW 12.7 mph - N/A   Partly Cloudy
5:53 PM 75.0 °F 52.0 °F 44% 29.98 in 10.0 mi NW 11.5 mph - N/A   Scattered Clouds
6:53 PM 73.0 °F 52.0 °F 48% 29.97 in 10.0 mi NNW 8.1 mph - N/A   Clear
7:53 PM 70.0 °F 53.1 °F 55% 29.98 in 10.0 mi NNW 6.9 mph - N/A   Clear
8:53 PM 63.0 °F 55.0 °F 75% 30.00 in 10.0 mi Calm Calm - N/A   Clear
9:53 PM 57.9 °F 54.0 °F 87% 30.01 in 10.0 mi Calm Calm - N/A   Clear
10:53 PM 55.9 °F 53.1 °F 90% 30.01 in 10.0 mi Calm Calm - N/A   Clear
11:53 PM 52.0 °F 50.0 °F 93% 30.02 in 10.0 mi Calm Calm - N/A   Clear